Dubai, UAE

3:31 PM GST on July 29, 2016 (GMT +0400)
Dubai

Weather History for 41194 - July, 2013

Change the Weather History Date:

Monday, July 8, 2013

  Actual Average Record
Temperature  
Mean Temperature 102 °F -  
Max Temperature 109 °F 103 °F - ()
Min Temperature 95 °F 85 °F - ()
Cooling Degree Days 37    
Growing Degree Days 52 (Base 50)    
Moisture  
Dew Point 71 °F    
Average Humidity 42    
Maximum Humidity 67    
Minimum Humidity 4    
Precipitation  
Precipitation 0.00 in 0.00 in - ()
Sea Level Pressure  
Sea Level Pressure 29.40 in    
Wind  
Wind Speed 6 mph ()    
Max Wind Speed 14 mph    
Max Gust Speed -    
Visibility 6.0 miles    
Events      
T = Trace of Precipitation, MM = Missing Value Source: Averaged Metar Reports

Daily Weather History Graph

Daily Weather History Graph

Search for Another Location

Airport or City:

Trip Planner

Search our weather history database for the weather conditions in past years. The results will help you decide how hot, cold, wet, or windy it might be!

Date:

Astronomy

Jul. 08, 2013 Rise Set
Actual Time 5:34 AM GST 7:12 PM GST
Civil Twilight 5:08 AM GST 7:38 PM GST
Nautical Twilight 4:38 AM GST 8:08 PM GST
Astronomical Twilight 4:05 AM GST 8:40 PM GST
Moon 5:34 AM GST (7/8) 7:09 PM GST (7/8)
Length of Visible Light 14h 29m
Length of Day
13h 38m
New Moon, 0% of the Moon is Illuminated
Jul 8
New Moon
Jul 16
First Quarter
Jul 22
Full
Jul 29
Last Quarter
Aug 7
New

Hourly Weather History & Observations

Time (GST) Temp. Heat Index Dew Point Humidity Pressure Visibility Wind Dir Wind Speed Gust Speed Precip Events Conditions
12:00 AM 96.8 °F 112.2 °F 77.0 °F 53% 29.44 in - NNE 6.9 mph - N/A   Clear
1:00 AM 95 °F - 80 °F 54% 29.46 in 6 mi NNE 3.5 mph - -  
1:00 AM 95.0 °F 115.8 °F 80.6 °F 63% 29.44 in - NNE 3.5 mph - N/A   Clear
2:00 AM 95.0 °F 115.8 °F 80.6 °F 63% 29.44 in - NE 4.6 mph - N/A   Clear
3:00 AM 96.8 °F 112.2 °F 77.0 °F 53% 29.42 in - SE 4.6 mph - N/A   Clear
4:00 AM 95 °F - 76 °F 45% 29.42 in 6 mi SE 6.9 mph - -   Scattered Clouds
4:00 AM 95.0 °F 107.4 °F 75.2 °F 53% 29.42 in - SE 6.9 mph - N/A   Clear
5:00 AM 95.0 °F 107.4 °F 75.2 °F 53% 29.42 in - East 4.6 mph - N/A   Clear
6:00 AM 95.0 °F 104.5 °F 73.4 °F 49% 29.42 in - SE 4.6 mph - N/A   Clear
7:00 AM 96 °F - 76 °F 43% 29.45 in 6 mi 2.3 mph - -   Scattered Clouds
7:00 AM 96.8 °F 109.6 °F 75.2 °F 50% 29.44 in - Variable 2.3 mph - N/A   Clear
8:00 AM 96.8 °F 112.2 °F 77.0 °F 53% 29.44 in - NNW 6.9 mph - N/A   Clear
9:00 AM 96.8 °F 126.0 °F 84.2 °F 67% 29.44 in - NW 5.8 mph - N/A   Clear
10:00 AM 98.6 °F 128.0 °F 84.2 °F 63% 29.44 in - North 6.9 mph - N/A   Clear
11:00 AM 98.6 °F 128.0 °F 84.2 °F 63% 29.44 in - NW 11.5 mph - N/A   Clear
12:00 PM 98.6 °F 124.6 °F 82.4 °F 60% 29.42 in - NW 10.4 mph - N/A   Clear
1:00 PM 102 °F - 81 °F 43% 29.42 in 6 mi NW 10.4 mph - -  
1:00 PM 102.2 °F 124.9 °F 80.6 °F 50% 29.42 in - NW 10.4 mph - N/A   Clear
2:00 PM 102.2 °F 124.9 °F 80.6 °F 50% 29.39 in - NW 12.7 mph - N/A   Clear
3:00 PM 102.2 °F 121.5 °F 78.8 °F 47% 29.36 in - NNW 13.8 mph - N/A   Clear
4:00 PM 104.0 °F 114.0 °F 71.6 °F 35% 29.36 in - NNW 12.7 mph - N/A   Clear
5:00 PM 107.6 °F 113.2 °F 66.2 °F 26% 29.36 in - North 13.8 mph - N/A   Clear
6:00 PM 105.8 °F 113.2 °F 68.0 °F 30% 29.36 in - North 13.8 mph - N/A   Clear
7:00 PM 107 °F - 63 °F 16% 29.36 in 6 mi North 11.5 mph - -   Clear
7:00 PM 105.8 °F 108.3 °F 62.6 °F 24% 29.36 in - North 11.5 mph - N/A   Clear
8:00 PM 105.8 °F 111.5 °F 66.2 °F 28% 29.36 in - NE 5.8 mph - N/A   Clear
9:00 PM 109.4 °F - 35.6 °F 8% 29.36 in - East 5.8 mph - N/A   Clear
10:00 PM 106 °F - 37 °F 4% 29.36 in 6 mi ESE 11.5 mph - -   Clear
10:00 PM 105.8 °F - 37.4 °F 10% 29.36 in - ESE 11.5 mph - N/A   Clear
11:00 PM 105.8 °F - 39.2 °F 10% 29.36 in - ESE 10.4 mph - N/A   Clear